User: anonymous   Login
Location: Unspecified
(0.0000°N, 0.0000°E)
Time: 08:36:14
(UTC+00:00)
Language:

PHOENIX - Orbit

View from above orbital plane
View from above orbital plane
View from above satellite
View from above satellite

Ground track
Ground track

The orbit data is extracted from the following two-line orbital elements,

1 42706U 98067LP  19128.42254485  .08245211  12410-4  57150-3 0  9990
2 42706  51.5998 109.6560 0003143 270.9046 228.4560 16.40380041113340
Epoch (UTC): 08 May 2019 10:08:27
Eccentricity: 0.0003143
inclination: 51.5998°
perigee height: 163 km
apogee height: 167 km
right ascension of ascending node: 109.6560°
argument of perigee: 270.9046°
revolutions per day: 16.40380041
mean anomaly at epoch: 228.4560°
orbit number at epoch: 11334

The dashed part of the orbit path shows where the satellite is in the earth's shadow,  

DLR